Regional Weather Roundup
Issued by NWS New Orleans/Baton Rouge, LA

Home | Current Version | Previous Version | Graphics & Text | Print | Product List | Glossary On
Versions: 1 2 3 4 5 6 7 8 9 10 11 12 13 14 15 16 17 18 19 20 21 22 23 24 25 26 27 28 29 30 31 32 33 34 35 36 37 38 39 40 41 42 43 44 45 46 47 48 49 50
197
ASUS44 KLIX 261207
RWRLIX
NEW ORLEANS REGIONAL WEATHER ROUNDUP
NATIONAL WEATHER SERVICE NEW ORLEANS LA
700 AM CDT THU MAR 26 2015

NOTE: "FAIR" INDICATES FEW OR NO CLOUDS BELOW 12,000 FEET WITH NO
      SIGNIFICANT WEATHER AND/OR OBSTRUCTIONS TO VISIBILITY.
      SKY/WX - SKY CONDITION AND SIGNIFICANT WEATHER.
      TMP - AIR TEMPERATURE.     DP    - DEWPOINT TEMPERATURE.
      RH  - RELATIVE HUMIDITY.   PRES  - PRESSURE.
      HI  - HEAT INDEX.          WCI   - WIND CHILL INDEX.

*  THESE STATIONS ARE NOT NWS OR FAA STATIONS AND ARE NOT UNDER
   NWS QUALITY CONTROL.

LAZ038-040-048-061>063-065>067-069-261300-
SOUTHEAST LOUISIANA

CITY           SKY/WX    TMP DP  RH WIND       PRES   REMARKS
N.O. AUDUBON     N/A     67  66  99 MISG        N/A
6HR MIN TEMP:  66; 6HR MAX TEMP:  70;

N.O. INTL ARPT CLOUDY    68  64  87 E3        29.90F
6HR MIN TEMP:  66; 6HR MAX TEMP:  68;

N.O. LAKEFRONT CLOUDY    70  65  84 E5        29.91S
6HR MIN TEMP:  69; 6HR MAX TEMP:  70;

SLIDELL        CLOUDY    64  63  96 CALM      29.92R
6HR MIN TEMP:  59; 6HR MAX TEMP:  64;

BATON ROUGE    MOCLDY    63  61  93 NE3       29.91S
6HR MIN TEMP:  62; 6HR MAX TEMP:  66;

BOOTHVILLE     RAIN      64  63  96 CALM      29.91S VSB 1/2
6HR MIN TEMP:  63; 6HR MAX TEMP:  67; 6HR PCP:  0.01;

BELLE CHASSE   CLOUDY    68  65  90 NE3       29.89F
6HR MIN TEMP:  67; 6HR MAX TEMP:  69;

BOGALUSA*        N/A     61  58  90 N3        29.95R
6HR MIN TEMP:  60; 6HR MAX TEMP:  67;

GALLIANO*      CLOUDY    69  67  94 S3        29.91R
6HR MIN TEMP:  69; 6HR MAX TEMP:  72;

NEW ROADS*     CLOUDY    59  58  96 N6        29.93R FOG
6HR MIN TEMP:  59; 6HR MAX TEMP:  64;

GONZALES*        N/A     64  64 100 CALM      29.90F
6HR MIN TEMP:  64; 6HR MAX TEMP:  67;

HAMMOND*       CLOUDY    63  61  94 CALM      29.94R
HOUMA*         MOCLDY    70  70 100 CALM      29.90S
PORT FOURCHON* CLOUDY    72  68  88 SW14      29.94R

$$

MSZ070-080>082-261300-
SOUTHERN MISSISSIPPI

CITY           SKY/WX    TMP DP  RH WIND       PRES   REMARKS
MCCOMB         CLOUDY    61  60  97 CALM      29.94R FOG
6HR MIN TEMP:  57; 6HR MAX TEMP:  63;

GULFPORT       CLOUDY    66  64  93 CALM      29.92S
6HR MIN TEMP:  63; 6HR MAX TEMP:  69;

BILOXI         CLOUDY    65  65 100 E5        29.92F
6HR MIN TEMP:  65; 6HR MAX TEMP:  69;

PASCAGOULA     CLOUDY    61  60  97 CALM      29.94S
6HR MIN TEMP:  57; 6HR MAX TEMP:  64;


$$

COASTAL OBSERVATIONS
LAKE AND NEARSHORE STATIONS

STATION/POSITION TIME  TEMP    WIND        PRES    WAVE
                       AIR SEA DIR/SP/G            HT/PER
                 (UTC) (F)     (DEG/KT/KT) (MB)    (FT/S)
PASCAGOULA       1100   70     110/  5/  7 1013.0
WAVELAND YACHT   1100   68 71  100/  3/  5 1013.2
GRAND ISLE       1100   71 71  160/  5/  7 1012.3
SOUTHWEST PASS   1100   65 51  150/  2/  6 1012.5
NEW CANAL        1100   67      CALM  /  1 1013.2
SHELL BEACH      1100   69 72  100/  5/  7 1012.7

OFFSHORE STATIONS

STATION/POSITION TIME  TEMP    WIND        PRES    WAVE
                       AIR SEA DIR/SP/G            HT/PER
                 (UTC) (F)     (DEG/KT/KT) (MB)    (FT/S)
64 S DAUPHIN ISL 1150   73 72  180/  4/  6 1012.8    3/ 5

$$




USA.gov is the U.S. government's official web portal to all federal, state and local government web resources and services.